Time,TemperatureF,DewpointF,PressureIn,WindDirection,WindDirectionDegrees,WindSpeedMPH,WindSpeedGustMPH,Humidity,HourlyPrecipIn,Conditions,Clouds,dailyrainin,SolarRadiationWatts/m^2,SoftwareType,DateUTC
2013-01-21 00:00:00,36.6,30.7,30.15,NW,324,0.0,0.0,79,0.00,,---,0.00,0.00,VWS V14.00,2013-01-21 06:00:00,
2013-01-21 00:03:00,36.4,30.8,30.16,NW,324,0.0,0.0,80,0.00,,---,0.00,0.00,VWS V14.00,2013-01-21 06:03:00,
2013-01-21 00:08:00,36.6,31.0,30.15,NW,324,0.0,0.0,80,0.00,,---,0.00,0.00,VWS V14.00,2013-01-21 06:08:00,
2013-01-21 00:13:00,36.6,31.0,30.15,NW,324,0.0,0.0,80,0.00,,---,0.00,0.00,VWS V14.00,2013-01-21 06:13:00,
2013-01-21 00:18:00,36.5,30.9,30.15,NW,324,0.0,0.0,80,0.00,,---,0.00,0.00,VWS V14.00,2013-01-21 06:18:00,
2013-01-21 00:23:00,36.4,30.8,30.15,NW,324,0.0,0.0,80,0.00,,---,0.00,0.00,VWS V14.00,2013-01-21 06:23:00,
2013-01-21 00:28:00,36.6,31.0,30.15,NW,324,0.0,0.0,80,0.00,,---,0.00,0.00,VWS V14.00,2013-01-21 06:28:00,
2013-01-21 00:30:00,36.5,30.9,30.15,NW,324,0.0,0.0,80,0.00,,---,0.00,0.00,VWS V14.00,2013-01-21 06:30:00,
2013-01-21 00:33:00,37.3,31.4,30.15,NW,324,0.0,0.0,79,0.00,,---,0.00,0.00,VWS V14.00,2013-01-21 06:33:00,
2013-01-21 00:38:00,37.6,31.4,30.15,NW,324,0.0,0.0,78,0.00,,---,0.00,0.00,VWS V14.00,2013-01-21 06:38:00,
2013-01-21 00:43:00,37.7,31.1,30.15,NW,324,0.0,0.0,77,0.00,,---,0.00,0.00,VWS V14.00,2013-01-21 06:43:00,
2013-01-21 00:48:00,37.8,31.2,30.15,NW,324,0.0,0.0,77,0.00,,---,0.00,0.00,VWS V14.00,2013-01-21 06:48:00,
2013-01-21 00:53:00,37.8,30.9,30.15,NW,324,0.0,0.0,76,0.00,,---,0.00,0.00,VWS V14.00,2013-01-21 06:53:00,
2013-01-21 00:58:00,38.0,31.1,30.15,NNW,330,0.0,0.0,76,0.00,,---,0.00,0.00,VWS V14.00,2013-01-21 06:58:00,
2013-01-21 01:00:00,38.0,31.1,30.15,NNW,330,0.0,0.0,76,0.00,,---,0.00,0.00,VWS V14.00,2013-01-21 07:00:00,
2013-01-21 01:03:00,38.1,30.9,30.14,NNW,330,0.0,0.0,75,0.00,,---,0.00,0.00,VWS V14.00,2013-01-21 07:03:00,
2013-01-21 01:08:00,38.3,30.8,30.15,NNW,330,0.0,0.0,74,0.00,,---,0.00,0.00,VWS V14.00,2013-01-21 07:08:00,
2013-01-21 01:13:00,38.3,30.8,30.14,NNW,330,0.0,0.0,74,0.00,,---,0.00,0.00,VWS V14.00,2013-01-21 07:13:00,
2013-01-21 01:18:00,38.4,30.5,30.15,NNW,330,0.0,0.0,73,0.00,,---,0.00,0.00,VWS V14.00,2013-01-21 07:18:00,
2013-01-21 01:23:00,38.4,30.5,30.14,NNW,330,0.0,0.0,73,0.00,,---,0.00,0.00,VWS V14.00,2013-01-21 07:23:00,
2013-01-21 01:28:00,38.5,30.3,30.15,NNW,330,0.0,0.0,72,0.00,,---,0.00,0.00,VWS V14.00,2013-01-21 07:28:00,
2013-01-21 01:30:00,38.5,30.6,30.15,NNW,330,0.0,0.0,73,0.00,,---,0.00,0.00,VWS V14.00,2013-01-21 07:30:00,
2013-01-21 01:33:00,38.5,30.3,30.15,NNW,330,0.0,0.0,72,0.00,,---,0.00,0.00,VWS V14.00,2013-01-21 07:33:00,
2013-01-21 01:38:00,38.3,30.4,30.15,NNW,330,0.0,0.0,73,0.00,,---,0.00,0.00,VWS V14.00,2013-01-21 07:38:00,
2013-01-21 01:43:00,38.0,30.5,30.15,NNW,330,0.0,0.0,74,0.00,,---,0.00,0.00,VWS V14.00,2013-01-21 07:43:00,
2013-01-21 01:48:00,37.7,30.2,30.15,NNW,330,0.0,0.0,74,0.00,,---,0.00,0.00,VWS V14.00,2013-01-21 07:48:00,
2013-01-21 01:53:00,37.4,29.9,30.15,NNW,330,0.0,0.0,74,0.00,,---,0.00,0.00,VWS V14.00,2013-01-21 07:53:00,
2013-01-21 01:58:00,37.0,29.5,30.15,NNW,330,0.0,0.0,74,0.00,,---,0.00,0.00,VWS V14.00,2013-01-21 07:58:00,
2013-01-21 02:00:00,37.1,29.6,30.15,NNW,330,0.0,0.0,74,0.00,,---,0.00,0.00,VWS V14.00,2013-01-21 08:00:00,
2013-01-21 02:03:00,36.8,29.6,30.16,NNW,330,0.0,0.0,75,0.00,,---,0.00,0.00,VWS V14.00,2013-01-21 08:03:00,
2013-01-21 02:08:00,36.5,29.7,30.16,NNW,330,0.0,0.0,76,0.00,,---,0.00,0.00,VWS V14.00,2013-01-21 08:08:00,
2013-01-21 02:13:00,36.2,29.4,30.16,NNW,330,0.0,0.0,76,0.00,,---,0.00,0.00,VWS V14.00,2013-01-21 08:13:00,
2013-01-21 02:18:00,35.8,29.6,30.17,NNW,330,0.0,0.0,78,0.00,,---,0.00,0.00,VWS V14.00,2013-01-21 08:18:00,
2013-01-21 02:23:00,35.7,29.5,30.17,NNW,330,0.0,0.0,78,0.00,,---,0.00,0.00,VWS V14.00,2013-01-21 08:23:00,
2013-01-21 02:28:00,35.4,28.9,30.16,NNW,330,0.0,0.0,77,0.00,,---,0.00,0.00,VWS V14.00,2013-01-21 08:28:00,
2013-01-21 02:30:00,35.5,29.0,30.17,NNW,330,0.0,0.0,77,0.00,,---,0.00,0.00,VWS V14.00,2013-01-21 08:30:00,
2013-01-21 02:33:00,35.1,28.9,30.16,NNW,330,0.0,0.0,78,0.00,,---,0.00,0.00,VWS V14.00,2013-01-21 08:33:00,
2013-01-21 02:38:00,34.8,28.3,30.16,NNW,330,0.0,0.0,77,0.00,,---,0.00,0.00,VWS V14.00,2013-01-21 08:38:00,
2013-01-21 02:43:00,34.5,28.4,30.16,NNW,330,0.0,0.0,78,0.00,,---,0.00,0.00,VWS V14.00,2013-01-21 08:43:00,
2013-01-21 02:48:00,34.3,28.5,30.16,NNW,330,0.0,0.0,79,0.00,,---,0.00,0.00,VWS V14.00,2013-01-21 08:48:00,
2013-01-21 02:53:00,34.5,29.0,30.16,NNW,330,0.0,0.0,80,0.00,,---,0.00,0.00,VWS V14.00,2013-01-21 08:53:00,
2013-01-21 02:58:00,34.7,28.9,30.16,NNW,330,0.0,0.0,79,0.00,,---,0.00,0.00,VWS V14.00,2013-01-21 08:58:00,
2013-01-21 03:00:00,34.7,28.9,30.16,NNW,330,0.0,0.0,79,0.00,,---,0.00,0.00,VWS V14.00,2013-01-21 09:00:00,
2013-01-21 03:03:00,35.0,28.9,30.16,NNW,330,0.0,0.0,78,0.00,,---,0.00,0.00,VWS V14.00,2013-01-21 09:03:00,
2013-01-21 03:08:00,35.3,28.8,30.16,North,11,0.0,3.0,77,0.00,,---,0.00,0.00,VWS V14.00,2013-01-21 09:08:00,
2013-01-21 03:13:00,35.6,28.8,30.17,North,11,0.0,3.0,76,0.00,,---,0.00,0.00,VWS V14.00,2013-01-21 09:13:00,
2013-01-21 03:18:00,35.8,28.7,30.17,North,11,0.0,3.0,75,0.00,,---,0.00,0.00,VWS V14.00,2013-01-21 09:18:00,
2013-01-21 03:23:00,35.9,28.4,30.17,North,11,0.0,3.0,74,0.00,,---,0.00,0.00,VWS V14.00,2013-01-21 09:23:00,
2013-01-21 03:28:00,35.9,28.8,30.17,North,11,0.0,0.0,75,0.00,,---,0.00,0.00,VWS V14.00,2013-01-21 09:28:00,
2013-01-21 03:30:00,35.9,28.8,30.17,North,11,0.0,3.0,75,0.00,,---,0.00,0.00,VWS V14.00,2013-01-21 09:30:00,
2013-01-21 03:33:00,35.9,28.1,30.17,North,11,0.0,0.0,73,0.00,,---,0.00,0.00,VWS V14.00,2013-01-21 09:33:00,
2013-01-21 03:38:00,35.9,28.1,30.17,North,11,0.0,0.0,73,0.00,,---,0.00,0.00,VWS V14.00,2013-01-21 09:38:00,
2013-01-21 03:43:00,35.9,28.1,30.17,North,11,0.0,0.0,73,0.00,,---,0.00,0.00,VWS V14.00,2013-01-21 09:43:00,
2013-01-21 03:48:00,35.7,27.9,30.18,North,11,0.0,0.0,73,0.00,,---,0.00,0.00,VWS V14.00,2013-01-21 09:48:00,
2013-01-21 03:53:00,35.6,27.8,30.17,North,11,0.0,0.0,73,0.00,,---,0.00,0.00,VWS V14.00,2013-01-21 09:53:00,
2013-01-21 03:58:00,35.4,27.6,30.17,North,11,0.0,0.0,73,0.00,,---,0.00,0.00,VWS V14.00,2013-01-21 09:58:00,
2013-01-21 04:00:00,35.4,27.6,30.17,North,11,0.0,0.0,73,0.00,,---,0.00,0.00,VWS V14.00,2013-01-21 10:00:00,
2013-01-21 04:03:00,35.2,27.4,30.17,NNE,16,0.0,0.0,73,0.00,,---,0.00,0.00,VWS V14.00,2013-01-21 10:03:00,
2013-01-21 04:08:00,35.2,27.4,30.18,NNE,16,0.0,1.0,73,0.00,,---,0.00,0.00,VWS V14.00,2013-01-21 10:08:00,
2013-01-21 04:13:00,35.3,27.5,30.18,NNE,16,0.0,1.0,73,0.00,,---,0.00,0.00,VWS V14.00,2013-01-21 10:13:00,
2013-01-21 04:18:00,35.3,27.2,30.18,NNE,19,0.0,1.0,72,0.00,,---,0.00,0.00,VWS V14.00,2013-01-21 10:18:00,
2013-01-21 04:23:00,35.2,27.1,30.19,North,11,0.0,1.0,72,0.00,,---,0.00,0.00,VWS V14.00,2013-01-21 10:23:00,
2013-01-21 04:28:00,35.1,27.0,30.19,North,5,0.0,0.0,72,0.00,,---,0.00,0.00,VWS V14.00,2013-01-21 10:28:00,
2013-01-21 04:30:00,35.1,27.0,30.19,North,5,0.0,3.0,72,0.00,,---,0.00,0.00,VWS V14.00,2013-01-21 10:30:00,
2013-01-21 04:33:00,35.0,26.6,30.19,North,5,0.0,4.0,71,0.00,,---,0.00,0.00,VWS V14.00,2013-01-21 10:33:00,
2013-01-21 04:38:00,35.0,26.6,30.19,NNE,24,0.0,4.0,71,0.00,,---,0.00,0.00,VWS V14.00,2013-01-21 10:38:00,
2013-01-21 04:43:00,35.0,26.2,30.19,NNE,15,0.0,5.0,70,0.00,,---,0.00,0.00,VWS V14.00,2013-01-21 10:43:00,
2013-01-21 04:48:00,35.0,25.9,30.19,NNE,24,0.0,5.0,69,0.00,,---,0.00,0.00,VWS V14.00,2013-01-21 10:48:00,
2013-01-21 04:53:00,35.0,25.9,30.19,NNE,16,0.0,5.0,69,0.00,,---,0.00,0.00,VWS V14.00,2013-01-21 10:53:00,
2013-01-21 04:58:00,35.0,25.5,30.19,NE,50,0.0,0.0,68,0.00,,---,0.00,0.00,VWS V14.00,2013-01-21 10:58:00,
2013-01-21 05:00:00,35.0,25.5,30.19,NNW,342,0.0,5.0,68,0.00,,---,0.00,0.00,VWS V14.00,2013-01-21 11:00:00,
2013-01-21 05:03:00,35.0,25.9,30.20,North,360,0.0,6.0,69,0.00,,---,0.00,0.00,VWS V14.00,2013-01-21 11:03:00,
2013-01-21 05:08:00,34.8,25.7,30.19,North,360,0.0,6.0,69,0.00,,---,0.00,0.00,VWS V14.00,2013-01-21 11:08:00,
2013-01-21 05:13:00,34.7,25.9,30.20,North,5,0.0,6.0,70,0.00,,---,0.00,0.00,VWS V14.00,2013-01-21 11:13:00,
2013-01-21 05:18:00,34.7,25.6,30.20,NE,46,0.0,6.0,69,0.00,,---,0.00,0.00,VWS V14.00,2013-01-21 11:18:00,
2013-01-21 05:23:00,34.7,25.2,30.21,North,355,0.0,6.0,68,0.00,,---,0.00,0.00,VWS V14.00,2013-01-21 11:23:00,
2013-01-21 05:28:00,34.7,25.2,30.21,NNE,22,0.0,3.0,68,0.00,,---,0.00,0.00,VWS V14.00,2013-01-21 11:28:00,
2013-01-21 05:30:00,34.7,25.2,30.21,NE,44,1.0,6.0,68,0.00,,---,0.00,0.00,VWS V14.00,2013-01-21 11:30:00,
2013-01-21 05:33:00,34.6,25.1,30.21,North,360,0.0,5.0,68,0.00,,---,0.00,0.00,VWS V14.00,2013-01-21 11:33:00,
2013-01-21 05:38:00,34.5,25.0,30.22,North,9,0.0,5.0,68,0.00,,---,0.00,0.00,VWS V14.00,2013-01-21 11:38:00,
2013-01-21 05:43:00,34.4,24.6,30.22,North,5,0.0,7.0,67,0.00,,---,0.00,0.00,VWS V14.00,2013-01-21 11:43:00,
2013-01-21 05:48:00,34.3,24.9,30.22,NNE,22,0.0,7.0,68,0.00,,---,0.00,0.00,VWS V14.00,2013-01-21 11:48:00,
2013-01-21 05:53:00,34.2,24.8,30.22,NE,40,0.0,7.0,68,0.00,,---,0.00,0.00,VWS V14.00,2013-01-21 11:53:00,
2013-01-21 05:58:00,34.2,24.8,30.22,NNW,345,0.0,0.0,68,0.00,,---,0.00,0.00,VWS V14.00,2013-01-21 11:58:00,
2013-01-21 06:00:00,34.2,24.8,30.22,NNE,28,0.0,9.0,68,0.00,,---,0.00,0.00,VWS V14.00,2013-01-21 12:00:00,
2013-01-21 06:03:00,34.2,24.8,30.22,NE,40,0.0,2.0,68,0.00,,---,0.00,0.00,VWS V14.00,2013-01-21 12:03:00,
2013-01-21 06:08:00,34.1,24.7,30.23,NE,41,0.0,2.0,68,0.00,,---,0.00,0.00,VWS V14.00,2013-01-21 12:08:00,
2013-01-21 06:13:00,34.0,24.6,30.23,NE,36,0.0,2.0,68,0.00,,---,0.00,0.00,VWS V14.00,2013-01-21 12:13:00,
2013-01-21 06:18:00,33.8,24.4,30.24,North,349,0.0,5.0,68,0.00,,---,0.00,0.00,VWS V14.00,2013-01-21 12:18:00,
2013-01-21 06:23:00,33.7,24.3,30.24,NNE,18,0.0,5.0,68,0.00,,---,0.00,0.00,VWS V14.00,2013-01-21 12:23:00,
2013-01-21 06:28:00,33.7,24.6,30.24,NNE,32,0.0,0.0,69,0.00,,---,0.00,0.00,VWS V14.00,2013-01-21 12:28:00,
2013-01-21 06:30:00,33.7,24.6,30.24,NNE,32,0.0,5.0,69,0.00,,---,0.00,0.00,VWS V14.00,2013-01-21 12:30:00,
2013-01-21 06:33:00,33.7,25.0,30.24,NE,36,0.0,6.0,70,0.00,,---,0.00,0.00,VWS V14.00,2013-01-21 12:33:00,
2013-01-21 06:38:00,33.8,24.7,30.24,ENE,63,0.0,7.0,69,0.00,,---,0.00,0.00,VWS V14.00,2013-01-21 12:38:00,
2013-01-21 06:43:00,34.0,24.6,30.24,NE,42,0.0,7.0,68,0.00,,---,0.00,0.00,VWS V14.00,2013-01-21 12:43:00,
2013-01-21 06:48:00,34.1,25.0,30.24,NNE,27,0.0,7.0,69,0.00,,---,0.00,0.00,VWS V14.00,2013-01-21 12:48:00,
2013-01-21 06:53:00,34.2,24.8,30.25,NE,41,0.0,7.0,68,0.00,,---,0.00,0.00,VWS V14.00,2013-01-21 12:53:00,
2013-01-21 06:58:00,34.3,24.9,30.25,NNE,13,2.0,4.0,68,0.00,,---,0.00,0.00,VWS V14.00,2013-01-21 12:58:00,
2013-01-21 07:00:00,34.3,24.9,30.25,NE,44,0.0,7.0,68,0.00,,---,0.00,0.00,VWS V14.00,2013-01-21 13:00:00,
2013-01-21 07:03:00,34.4,24.6,30.26,NE,43,0.0,11.0,67,0.00,,---,0.00,0.00,VWS V14.00,2013-01-21 13:03:00,
2013-01-21 07:08:00,34.4,25.0,30.26,NE,34,0.0,11.0,68,0.00,,---,0.00,0.00,VWS V14.00,2013-01-21 13:08:00,
2013-01-21 07:13:00,34.5,25.0,30.27,North,355,0.0,11.0,68,0.00,,---,0.00,5.00,VWS V14.00,2013-01-21 13:13:00,
2013-01-21 07:18:00,34.5,24.7,30.27,NE,51,0.0,11.0,67,0.00,,---,0.00,5.00,VWS V14.00,2013-01-21 13:18:00,
2013-01-21 07:23:00,34.6,24.8,30.27,NE,49,0.0,11.0,67,0.00,,---,0.00,7.00,VWS V14.00,2013-01-21 13:23:00,
2013-01-21 07:28:00,34.6,24.8,30.27,NNE,32,1.0,4.0,67,0.00,,---,0.00,11.00,VWS V14.00,2013-01-21 13:28:00,
2013-01-21 07:30:00,34.6,25.1,30.27,NE,37,1.0,11.0,68,0.00,,---,0.00,11.00,VWS V14.00,2013-01-21 13:30:00,
2013-01-21 07:33:00,34.6,24.8,30.27,North,351,3.0,7.0,67,0.00,,---,0.00,12.00,VWS V14.00,2013-01-21 13:33:00,
2013-01-21 07:38:00,34.6,24.1,30.28,NE,48,0.0,7.0,65,0.00,,---,0.00,16.00,VWS V14.00,2013-01-21 13:38:00,
2013-01-21 07:43:00,34.6,24.4,30.28,NNE,26,0.0,7.0,66,0.00,,---,0.00,19.00,VWS V14.00,2013-01-21 13:43:00,
2013-01-21 07:48:00,34.6,24.1,30.28,NE,46,0.0,7.0,65,0.00,,---,0.00,23.00,VWS V14.00,2013-01-21 13:48:00,
2013-01-21 07:53:00,34.6,24.4,30.29,NE,46,0.0,7.0,66,0.00,,---,0.00,32.00,VWS V14.00,2013-01-21 13:53:00,
2013-01-21 07:58:00,34.6,24.1,30.29,North,5,0.0,0.0,65,0.00,,---,0.00,40.00,VWS V14.00,2013-01-21 13:58:00,
2013-01-21 08:00:00,34.6,24.1,30.29,NNW,347,0.0,9.0,65,0.00,,---,0.00,39.00,VWS V14.00,2013-01-21 14:00:00,
2013-01-21 08:03:00,34.7,23.8,30.29,NE,47,0.0,9.0,64,0.00,,---,0.00,47.00,VWS V14.00,2013-01-21 14:03:00,
2013-01-21 08:08:00,34.8,23.5,30.30,NNE,32,0.0,9.0,63,0.00,,---,0.00,49.00,VWS V14.00,2013-01-21 14:08:00,
2013-01-21 08:13:00,34.8,23.9,30.30,NNE,16,0.0,9.0,64,0.00,,---,0.00,58.00,VWS V14.00,2013-01-21 14:13:00,
2013-01-21 08:18:00,34.9,24.0,30.30,NNE,19,1.0,9.0,64,0.00,,---,0.00,60.00,VWS V14.00,2013-01-21 14:18:00,
2013-01-21 08:23:00,34.9,24.0,30.30,NNE,27,0.0,9.0,64,0.00,,---,0.00,56.00,VWS V14.00,2013-01-21 14:23:00,
2013-01-21 08:28:00,34.8,23.5,30.30,NE,50,0.0,0.0,63,0.00,,---,0.00,125.00,VWS V14.00,2013-01-21 14:28:00,
2013-01-21 08:30:00,34.8,23.5,30.31,NE,42,0.0,9.0,63,0.00,,---,0.00,155.00,VWS V14.00,2013-01-21 14:30:00,
2013-01-21 08:33:00,35.0,23.7,30.31,NNE,26,0.0,7.0,63,0.00,,---,0.00,121.00,VWS V14.00,2013-01-21 14:33:00,
2013-01-21 08:38:00,35.3,24.4,30.31,North,355,0.0,7.0,64,0.00,,---,0.00,116.00,VWS V14.00,2013-01-21 14:38:00,
2013-01-21 08:43:00,35.6,23.9,30.31,NE,48,0.0,7.0,62,0.00,,---,0.00,86.00,VWS V14.00,2013-01-21 14:43:00,
2013-01-21 08:48:00,35.9,24.5,30.31,NNE,22,0.0,7.0,63,0.00,,---,0.00,63.00,VWS V14.00,2013-01-21 14:48:00,
2013-01-21 08:53:00,36.2,22.9,30.31,North,5,4.0,11.0,58,0.00,,---,0.00,49.00,VWS V14.00,2013-01-21 14:53:00,
2013-01-21 08:58:00,36.2,22.5,30.32,North,355,0.0,4.0,57,0.00,,---,0.00,47.00,VWS V14.00,2013-01-21 14:58:00,
2013-01-21 09:00:00,36.2,22.5,30.32,NE,55,4.0,12.0,57,0.00,,---,0.00,47.00,VWS V14.00,2013-01-21 15:00:00,
2013-01-21 09:03:00,36.5,22.7,30.32,NE,44,3.0,7.0,57,0.00,,---,0.00,49.00,VWS V14.00,2013-01-21 15:03:00,
2013-01-21 09:08:00,36.6,21.1,30.32,North,5,9.0,13.0,53,0.00,,---,0.00,49.00,VWS V14.00,2013-01-21 15:08:00,
2013-01-21 09:13:00,36.7,20.8,30.32,NE,54,0.0,13.0,52,0.00,,---,0.00,51.00,VWS V14.00,2013-01-21 15:13:00,
2013-01-21 09:18:00,36.8,20.4,30.32,NE,49,3.0,13.0,51,0.00,,---,0.00,53.00,VWS V14.00,2013-01-21 15:18:00,
2013-01-21 09:23:00,37.1,21.1,30.32,NNE,12,5.0,13.0,52,0.00,,---,0.00,53.00,VWS V14.00,2013-01-21 15:23:00,
2013-01-21 09:28:00,37.3,20.9,30.32,ENE,59,0.0,3.0,51,0.00,,---,0.00,53.00,VWS V14.00,2013-01-21 15:28:00,
2013-01-21 09:30:00,37.3,20.4,30.32,NNW,348,0.0,13.0,50,0.00,,---,0.00,53.00,VWS V14.00,2013-01-21 15:30:00,
2013-01-21 09:33:00,37.7,20.8,30.32,ENE,57,2.0,7.0,50,0.00,,---,0.00,53.00,VWS V14.00,2013-01-21 15:33:00,
2013-01-21 09:38:00,38.1,21.6,30.32,NE,53,0.0,7.0,51,0.00,,---,0.00,54.00,VWS V14.00,2013-01-21 15:38:00,
2013-01-21 09:43:00,38.6,22.0,30.32,NW,317,0.0,7.0,51,0.00,,---,0.00,60.00,VWS V14.00,2013-01-21 15:43:00,
2013-01-21 09:48:00,38.9,21.4,30.32,NE,51,0.0,8.0,49,0.00,,---,0.00,109.00,VWS V14.00,2013-01-21 15:48:00,
2013-01-21 09:53:00,39.1,21.6,30.33,NE,50,0.0,10.0,49,0.00,,---,0.00,188.00,VWS V14.00,2013-01-21 15:53:00,
2013-01-21 09:58:00,39.2,21.2,30.32,NE,38,0.0,6.0,48,0.00,,---,0.00,301.00,VWS V14.00,2013-01-21 15:58:00,
2013-01-21 10:00:00,39.2,21.7,30.32,NNE,22,3.0,10.0,49,0.00,,---,0.00,301.00,VWS V14.00,2013-01-21 16:00:00,
2013-01-21 10:03:00,39.3,21.8,30.32,NNE,32,0.0,8.0,49,0.00,,---,0.00,394.00,VWS V14.00,2013-01-21 16:03:00,
2013-01-21 10:08:00,39.4,21.4,30.32,NE,34,0.0,10.0,48,0.00,,---,0.00,436.00,VWS V14.00,2013-01-21 16:08:00,
2013-01-21 10:13:00,39.8,22.7,30.32,North,5,0.0,10.0,50,0.00,,---,0.00,443.00,VWS V14.00,2013-01-21 16:13:00,
2013-01-21 10:18:00,40.1,22.5,30.32,NE,37,0.0,10.0,49,0.00,,---,0.00,446.00,VWS V14.00,2013-01-21 16:18:00,
2013-01-21 10:23:00,40.4,21.3,30.32,North,10,0.0,10.0,46,0.00,,---,0.00,459.00,VWS V14.00,2013-01-21 16:23:00,
2013-01-21 10:28:00,40.7,22.5,30.32,ENE,61,4.0,7.0,48,0.00,,---,0.00,464.00,VWS V14.00,2013-01-21 16:28:00,
2013-01-21 10:30:00,40.7,22.5,30.32,NE,50,0.0,14.0,48,0.00,,---,0.00,464.00,VWS V14.00,2013-01-21 16:30:00,
2013-01-21 10:33:00,40.8,22.6,30.32,NE,49,2.0,11.0,48,0.00,,---,0.00,475.00,VWS V14.00,2013-01-21 16:33:00,
2013-01-21 10:38:00,41.1,22.4,30.32,NNE,29,5.0,11.0,47,0.00,,---,0.00,482.00,VWS V14.00,2013-01-21 16:38:00,
2013-01-21 10:43:00,41.1,21.9,30.32,NNE,29,3.0,13.0,46,0.00,,---,0.00,490.00,VWS V14.00,2013-01-21 16:43:00,
2013-01-21 10:48:00,41.0,21.8,30.32,NE,50,0.0,13.0,46,0.00,,---,0.00,501.00,VWS V14.00,2013-01-21 16:48:00,
2013-01-21 10:53:00,41.2,22.0,30.32,ENE,61,4.0,13.0,46,0.00,,---,0.00,506.00,VWS V14.00,2013-01-21 16:53:00,
2013-01-21 10:58:00,41.5,21.8,30.32,NNE,21,1.0,5.0,45,0.00,,---,0.00,512.00,VWS V14.00,2013-01-21 16:58:00,
2013-01-21 11:00:00,41.5,22.3,30.32,NE,46,0.0,13.0,46,0.00,,---,0.00,512.00,VWS V14.00,2013-01-21 17:00:00,
2013-01-21 11:03:00,41.6,22.9,30.32,NNE,27,0.0,13.0,47,0.00,,---,0.00,520.00,VWS V14.00,2013-01-21 17:03:00,
2013-01-21 11:08:00,42.2,22.9,30.31,NE,53,0.0,13.0,46,0.00,,---,0.00,527.00,VWS V14.00,2013-01-21 17:08:00,
2013-01-21 11:13:00,42.5,23.2,30.31,NE,34,0.0,13.0,46,0.00,,---,0.00,531.00,VWS V14.00,2013-01-21 17:13:00,
2013-01-21 11:18:00,42.4,21.5,30.31,North,11,0.0,13.0,43,0.00,,---,0.00,536.00,VWS V14.00,2013-01-21 17:18:00,
2013-01-21 11:23:00,42.4,22.0,30.31,NNE,26,0.0,13.0,44,0.00,,---,0.00,541.00,VWS V14.00,2013-01-21 17:23:00,
2013-01-21 11:28:00,42.7,21.2,30.31,NNE,28,0.0,1.0,42,0.00,,---,0.00,547.00,VWS V14.00,2013-01-21 17:28:00,
2013-01-21 11:30:00,42.6,21.1,30.31,NNE,22,0.0,13.0,42,0.00,,---,0.00,547.00,VWS V14.00,2013-01-21 17:30:00,
2013-01-21 11:33:00,42.9,20.8,30.30,NNE,21,0.0,12.0,41,0.00,,---,0.00,552.00,VWS V14.00,2013-01-21 17:33:00,
2013-01-21 11:38:00,42.9,21.4,30.30,WNW,294,0.0,14.0,42,0.00,,---,0.00,557.00,VWS V14.00,2013-01-21 17:38:00,
2013-01-21 11:43:00,43.1,21.0,30.29,NNE,32,0.0,14.0,41,0.00,,---,0.00,561.00,VWS V14.00,2013-01-21 17:43:00,
2013-01-21 11:48:00,43.2,21.1,30.29,ENE,68,0.0,14.0,41,0.00,,---,0.00,564.00,VWS V14.00,2013-01-21 17:48:00,
2013-01-21 11:53:00,43.4,21.9,30.28,North,10,0.0,14.0,42,0.00,,---,0.00,566.00,VWS V14.00,2013-01-21 17:53:00,
2013-01-21 11:58:00,43.8,21.6,30.28,North,360,0.0,2.0,41,0.00,,---,0.00,571.00,VWS V14.00,2013-01-21 17:58:00,
2013-01-21 12:00:00,43.7,21.6,30.28,NNW,330,0.0,14.0,41,0.00,,---,0.00,570.00,VWS V14.00,2013-01-21 18:00:00,
2013-01-21 12:03:00,44.1,22.5,30.27,North,11,0.0,3.0,42,0.00,,---,0.00,571.00,VWS V14.00,2013-01-21 18:03:00,
2013-01-21 12:08:00,44.2,22.0,30.27,NNW,338,0.0,10.0,41,0.00,,---,0.00,573.00,VWS V14.00,2013-01-21 18:08:00,
2013-01-21 12:13:00,44.3,22.7,30.27,North,350,3.0,10.0,42,0.00,,---,0.00,575.00,VWS V14.00,2013-01-21 18:13:00,
2013-01-21 12:18:00,44.3,22.7,30.27,ENE,73,3.0,10.0,42,0.00,,---,0.00,575.00,VWS V14.00,2013-01-21 18:18:00,
2013-01-21 12:23:00,44.3,22.1,30.26,NNW,338,0.0,10.0,41,0.00,,---,0.00,577.00,VWS V14.00,2013-01-21 18:23:00,
2013-01-21 12:28:00,44.5,21.7,30.26,NNE,32,0.0,6.0,40,0.00,,---,0.00,577.00,VWS V14.00,2013-01-21 18:28:00,
2013-01-21 12:30:00,44.4,21.6,30.26,NNE,12,5.0,10.0,40,0.00,,---,0.00,575.00,VWS V14.00,2013-01-21 18:30:00,
2013-01-21 12:33:00,44.4,21.0,30.26,ENE,75,2.0,6.0,39,0.00,,---,0.00,577.00,VWS V14.00,2013-01-21 18:33:00,
2013-01-21 12:38:00,44.5,23.4,30.26,NE,55,0.0,6.0,43,0.00,,---,0.00,577.00,VWS V14.00,2013-01-21 18:38:00,
2013-01-21 12:43:00,44.7,21.3,30.26,NE,53,1.0,10.0,39,0.00,,---,0.00,577.00,VWS V14.00,2013-01-21 18:43:00,
2013-01-21 12:48:00,44.8,22.0,30.26,NNE,32,2.0,10.0,40,0.00,,---,0.00,577.00,VWS V14.00,2013-01-21 18:48:00,
2013-01-21 12:53:00,44.8,21.4,30.25,NE,48,0.0,10.0,39,0.00,,---,0.00,575.00,VWS V14.00,2013-01-21 18:53:00,
2013-01-21 12:58:00,45.1,22.8,30.25,NE,46,0.0,3.0,41,0.00,,---,0.00,575.00,VWS V14.00,2013-01-21 18:58:00,
2013-01-21 13:00:00,45.0,22.7,30.25,SSW,212,0.0,10.0,41,0.00,,---,0.00,575.00,VWS V14.00,2013-01-21 19:00:00,
2013-01-21 13:02:00,45.3,22.4,30.26,NE,46,0.0,7.0,40,0.00,,---,0.00,571.00,VWS V14.00,2013-01-21 19:02:00,
2013-01-21 13:07:00,45.5,22.6,30.25,NE,50,0.0,7.0,40,0.00,,---,0.00,575.00,VWS V14.00,2013-01-21 19:07:00,
2013-01-21 13:12:00,45.5,22.6,30.25,ENE,59,2.0,11.0,40,0.00,,---,0.00,571.00,VWS V14.00,2013-01-21 19:12:00,
2013-01-21 13:17:00,45.5,23.2,30.25,ENE,60,5.0,11.0,41,0.00,,---,0.00,570.00,VWS V14.00,2013-01-21 19:17:00,
2013-01-21 13:22:00,45.7,22.8,30.25,NE,49,2.0,11.0,40,0.00,,---,0.00,568.00,VWS V14.00,2013-01-21 19:22:00,
2013-01-21 13:27:00,45.7,22.2,30.25,NE,53,0.0,2.0,39,0.00,,---,0.00,564.00,VWS V14.00,2013-01-21 19:27:00,
2013-01-21 13:30:00,45.7,22.2,30.25,WNW,292,0.0,11.0,39,0.00,,---,0.00,564.00,VWS V14.00,2013-01-21 19:30:00,
2013-01-21 13:32:00,45.6,22.7,30.25,NE,49,5.0,7.0,40,0.00,,---,0.00,561.00,VWS V14.00,2013-01-21 19:32:00,
2013-01-21 13:37:00,45.5,22.6,30.25,NE,55,2.0,7.0,40,0.00,,---,0.00,557.00,VWS V14.00,2013-01-21 19:37:00,
2013-01-21 13:42:00,45.6,22.1,30.25,ENE,71,0.0,7.0,39,0.00,,---,0.00,554.00,VWS V14.00,2013-01-21 19:42:00,
2013-01-21 13:47:00,45.9,20.5,30.25,NNE,16,0.0,7.0,36,0.00,,---,0.00,547.00,VWS V14.00,2013-01-21 19:47:00,
2013-01-21 13:52:00,46.2,20.7,30.25,NE,38,0.0,11.0,36,0.00,,---,0.00,540.00,VWS V14.00,2013-01-21 19:52:00,
2013-01-21 13:57:00,46.1,20.6,30.25,ENE,75,0.0,2.0,36,0.00,,---,0.00,533.00,VWS V14.00,2013-01-21 19:57:00,
2013-01-21 14:00:00,46.1,20.6,30.25,NNE,30,2.0,11.0,36,0.00,,---,0.00,533.00,VWS V14.00,2013-01-21 20:00:00,
2013-01-21 14:02:00,46.0,21.2,30.26,ENE,65,3.0,9.0,37,0.00,,---,0.00,526.00,VWS V14.00,2013-01-21 20:02:00,
2013-01-21 14:07:00,45.9,19.8,30.26,NE,48,0.0,12.0,35,0.00,,---,0.00,517.00,VWS V14.00,2013-01-21 20:07:00,
2013-01-21 14:12:00,45.7,20.3,30.26,ENE,57,0.0,12.0,36,0.00,,---,0.00,506.00,VWS V14.00,2013-01-21 20:12:00,
2013-01-21 14:17:00,45.9,20.5,30.26,NE,44,0.0,12.0,36,0.00,,---,0.00,497.00,VWS V14.00,2013-01-21 20:17:00,
2013-01-21 14:22:00,45.8,20.4,30.26,NNW,344,0.0,12.0,36,0.00,,---,0.00,489.00,VWS V14.00,2013-01-21 20:22:00,
2013-01-21 14:27:00,45.9,21.1,30.26,NE,39,0.0,3.0,37,0.00,,---,0.00,476.00,VWS V14.00,2013-01-21 20:27:00,
2013-01-21 14:30:00,45.9,21.1,30.27,NNE,24,0.0,12.0,37,0.00,,---,0.00,476.00,VWS V14.00,2013-01-21 20:30:00,
2013-01-21 14:32:00,45.9,21.1,30.26,NE,51,3.0,3.0,37,0.00,,---,0.00,464.00,VWS V14.00,2013-01-21 20:32:00,
2013-01-21 14:37:00,46.0,20.6,30.26,NE,44,0.0,6.0,36,0.00,,---,0.00,452.00,VWS V14.00,2013-01-21 20:37:00,
2013-01-21 14:42:00,45.9,20.5,30.26,ENE,59,0.0,6.0,36,0.00,,---,0.00,441.00,VWS V14.00,2013-01-21 20:42:00,
2013-01-21 14:47:00,45.8,21.0,30.26,NE,38,0.0,7.0,37,0.00,,---,0.00,429.00,VWS V14.00,2013-01-21 20:47:00,
2013-01-21 14:52:00,46.1,21.9,30.26,NE,44,3.0,7.0,38,0.00,,---,0.00,415.00,VWS V14.00,2013-01-21 20:52:00,
2013-01-21 14:57:00,45.8,21.6,30.26,NE,36,0.0,0.0,38,0.00,,---,0.00,403.00,VWS V14.00,2013-01-21 20:57:00,
2013-01-21 15:00:00,45.8,21.6,30.26,NNE,19,0.0,12.0,38,0.00,,---,0.00,403.00,VWS V14.00,2013-01-21 21:00:00,
2013-01-21 15:02:00,45.7,21.6,30.26,WNW,293,5.0,7.0,38,0.00,,---,0.00,388.00,VWS V14.00,2013-01-21 21:02:00,
2013-01-21 15:07:00,45.8,21.6,30.26,NNW,348,3.0,7.0,38,0.00,,---,0.00,374.00,VWS V14.00,2013-01-21 21:07:00,
2013-01-21 15:12:00,45.6,21.5,30.25,NNE,32,0.0,7.0,38,0.00,,---,0.00,360.00,VWS V14.00,2013-01-21 21:12:00,
2013-01-21 15:17:00,45.6,20.9,30.25,NE,54,0.0,7.0,37,0.00,,---,0.00,345.00,VWS V14.00,2013-01-21 21:17:00,
2013-01-21 15:22:00,45.6,21.5,30.26,ENE,63,0.0,7.0,38,0.00,,---,0.00,330.00,VWS V14.00,2013-01-21 21:22:00,
2013-01-21 15:27:00,45.4,21.3,30.26,NNE,26,0.0,0.0,38,0.00,,---,0.00,318.00,VWS V14.00,2013-01-21 21:27:00,
2013-01-21 15:30:00,45.4,21.3,30.26,NE,40,0.0,7.0,38,0.00,,---,0.00,318.00,VWS V14.00,2013-01-21 21:30:00,
2013-01-21 15:32:00,45.1,21.6,30.26,NNE,29,0.0,5.0,39,0.00,,---,0.00,302.00,VWS V14.00,2013-01-21 21:32:00,
2013-01-21 15:37:00,45.2,21.1,30.27,North,11,0.0,5.0,38,0.00,,---,0.00,287.00,VWS V14.00,2013-01-21 21:37:00,
2013-01-21 15:42:00,45.1,21.0,30.27,ENE,57,0.0,6.0,38,0.00,,---,0.00,271.00,VWS V14.00,2013-01-21 21:42:00,
2013-01-21 15:47:00,45.0,21.5,30.27,West,281,0.0,6.0,39,0.00,,---,0.00,255.00,VWS V14.00,2013-01-21 21:47:00,
2013-01-21 15:52:00,44.8,20.8,30.27,NNE,28,0.0,10.0,38,0.00,,---,0.00,239.00,VWS V14.00,2013-01-21 21:52:00,
2013-01-21 15:57:00,44.6,21.2,30.27,NNE,20,0.0,0.0,39,0.00,,---,0.00,225.00,VWS V14.00,2013-01-21 21:57:00,
2013-01-21 16:00:00,44.6,21.2,30.27,NNE,30,0.0,10.0,39,0.00,,---,0.00,225.00,VWS V14.00,2013-01-21 22:00:00,
2013-01-21 16:02:00,44.5,21.7,30.27,NNE,15,1.0,4.0,40,0.00,,---,0.00,204.00,VWS V14.00,2013-01-21 22:02:00,
2013-01-21 16:07:00,44.4,21.0,30.27,North,360,2.0,4.0,39,0.00,,---,0.00,185.00,VWS V14.00,2013-01-21 22:07:00,
2013-01-21 16:12:00,44.1,21.9,30.27,NE,46,0.0,8.0,41,0.00,,---,0.00,163.00,VWS V14.00,2013-01-21 22:12:00,
2013-01-21 16:17:00,43.9,21.2,30.27,North,5,1.0,8.0,40,0.00,,---,0.00,144.00,VWS V14.00,2013-01-21 22:17:00,
2013-01-21 16:22:00,43.7,21.0,30.28,NE,36,0.0,8.0,40,0.00,,---,0.00,123.00,VWS V14.00,2013-01-21 22:22:00,
2013-01-21 16:27:00,43.5,22.0,30.27,NE,44,1.0,2.0,42,0.00,,---,0.00,105.00,VWS V14.00,2013-01-21 22:27:00,
2013-01-21 16:30:00,43.6,22.0,30.27,NNE,13,0.0,8.0,42,0.00,,---,0.00,109.00,VWS V14.00,2013-01-21 22:30:00,
2013-01-21 16:32:00,43.3,21.8,30.28,NNE,22,0.0,4.0,42,0.00,,---,0.00,90.00,VWS V14.00,2013-01-21 22:32:00,
2013-01-21 16:37:00,43.1,21.6,30.28,NNE,22,2.0,5.0,42,0.00,,---,0.00,74.00,VWS V14.00,2013-01-21 22:37:00,
2013-01-21 16:42:00,42.8,21.9,30.28,NNE,33,0.0,5.0,43,0.00,,---,0.00,58.00,VWS V14.00,2013-01-21 22:42:00,
2013-01-21 16:47:00,42.5,21.0,30.27,NW,323,0.0,5.0,42,0.00,,---,0.00,44.00,VWS V14.00,2013-01-21 22:47:00,
2013-01-21 16:52:00,42.3,20.9,30.27,NE,36,0.0,5.0,42,0.00,,---,0.00,32.00,VWS V14.00,2013-01-21 22:52:00,
2013-01-21 16:57:00,42.0,21.1,30.28,NE,42,0.0,1.0,43,0.00,,---,0.00,23.00,VWS V14.00,2013-01-21 22:57:00,
2013-01-21 17:00:00,42.0,21.1,30.28,NE,51,1.0,5.0,43,0.00,,---,0.00,25.00,VWS V14.00,2013-01-21 23:00:00,
2013-01-21 17:02:00,41.6,21.3,30.28,NE,34,0.0,5.0,44,0.00,,---,0.00,16.00,VWS V14.00,2013-01-21 23:02:00,
2013-01-21 17:07:00,41.3,21.0,30.28,North,360,0.0,5.0,44,0.00,,---,0.00,12.00,VWS V14.00,2013-01-21 23:07:00,
2013-01-21 17:12:00,40.9,21.2,30.28,NNE,22,0.0,5.0,45,0.00,,---,0.00,9.00,VWS V14.00,2013-01-21 23:12:00,
2013-01-21 17:17:00,40.5,20.9,30.28,NNW,348,0.0,5.0,45,0.00,,---,0.00,7.00,VWS V14.00,2013-01-21 23:17:00,
2013-01-21 17:22:00,40.0,20.9,30.28,North,5,0.0,5.0,46,0.00,,---,0.00,0.00,VWS V14.00,2013-01-21 23:22:00,
2013-01-21 17:27:00,39.7,20.6,30.28,NNE,14,0.0,0.0,46,0.00,,---,0.00,0.00,VWS V14.00,2013-01-21 23:27:00,
2013-01-21 17:30:00,39.7,20.6,30.28,NNE,14,0.0,5.0,46,0.00,,---,0.00,0.00,VWS V14.00,2013-01-21 23:30:00,
2013-01-21 17:32:00,39.4,20.9,30.28,NE,53,1.0,3.0,47,0.00,,---,0.00,0.00,VWS V14.00,2013-01-21 23:32:00,
2013-01-21 17:37:00,39.1,21.1,30.28,North,5,0.0,4.0,48,0.00,,---,0.00,0.00,VWS V14.00,2013-01-21 23:37:00,
2013-01-21 17:42:00,38.8,20.8,30.28,North,349,0.0,4.0,48,0.00,,---,0.00,0.00,VWS V14.00,2013-01-21 23:42:00,
2013-01-21 17:47:00,38.6,21.6,30.28,ENE,63,0.0,4.0,50,0.00,,---,0.00,0.00,VWS V14.00,2013-01-21 23:47:00,
2013-01-21 17:52:00,38.2,21.2,30.28,NNE,17,0.0,4.0,50,0.00,,---,0.00,0.00,VWS V14.00,2013-01-21 23:52:00,
2013-01-21 17:57:00,37.9,20.9,30.28,NNE,17,0.0,0.0,50,0.00,,---,0.00,0.00,VWS V14.00,2013-01-21 23:57:00,
2013-01-21 18:00:00,38.0,21.0,30.28,NNE,17,0.0,4.0,50,0.00,,---,0.00,0.00,VWS V14.00,2013-01-22 00:00:00,
2013-01-21 18:02:00,37.7,21.2,30.28,NNE,17,0.0,0.0,51,0.00,,---,0.00,0.00,VWS V14.00,2013-01-22 00:02:00,
2013-01-21 18:07:00,37.4,21.4,30.29,North,355,4.0,4.0,52,0.00,,---,0.00,0.00,VWS V14.00,2013-01-22 00:07:00,
2013-01-21 18:12:00,37.2,21.7,30.29,NNE,28,0.0,4.0,53,0.00,,---,0.00,0.00,VWS V14.00,2013-01-22 00:12:00,
2013-01-21 18:17:00,37.0,21.5,30.29,NNE,22,0.0,4.0,53,0.00,,---,0.00,0.00,VWS V14.00,2013-01-22 00:17:00,
2013-01-21 18:22:00,36.8,20.8,30.30,NNE,13,0.0,4.0,52,0.00,,---,0.00,0.00,VWS V14.00,2013-01-22 00:22:00,
2013-01-21 18:27:00,36.8,20.8,30.30,NE,37,0.0,0.0,52,0.00,,---,0.00,0.00,VWS V14.00,2013-01-22 00:27:00,
2013-01-21 18:30:00,36.7,20.8,30.30,NE,47,0.0,4.0,52,0.00,,---,0.00,0.00,VWS V14.00,2013-01-22 00:30:00,
2013-01-21 18:32:00,36.7,20.8,30.30,NNE,22,0.0,4.0,52,0.00,,---,0.00,0.00,VWS V14.00,2013-01-22 00:32:00,
2013-01-21 18:37:00,36.5,20.6,30.30,NNE,26,0.0,4.0,52,0.00,,---,0.00,0.00,VWS V14.00,2013-01-22 00:37:00,
2013-01-21 18:42:00,36.3,20.4,30.30,NNE,27,0.0,4.0,52,0.00,,---,0.00,0.00,VWS V14.00,2013-01-22 00:42:00,
2013-01-21 18:47:00,36.0,20.5,30.30,NNE,15,0.0,4.0,53,0.00,,---,0.00,0.00,VWS V14.00,2013-01-22 00:47:00,
2013-01-21 18:52:00,35.9,20.5,30.30,North,11,0.0,4.0,53,0.00,,---,0.00,0.00,VWS V14.00,2013-01-22 00:52:00,
2013-01-21 18:57:00,35.6,20.6,30.30,NNE,13,0.0,0.0,54,0.00,,---,0.00,0.00,VWS V14.00,2013-01-22 00:57:00,
2013-01-21 19:00:00,35.6,20.6,30.30,NNE,13,0.0,4.0,54,0.00,,---,0.00,0.00,VWS V14.00,2013-01-22 01:00:00,
2013-01-21 19:02:00,35.4,20.9,30.30,NNE,13,0.0,0.0,55,0.00,,---,0.00,0.00,VWS V14.00,2013-01-22 01:02:00,
2013-01-21 19:07:00,35.2,20.7,30.30,NNE,13,0.0,0.0,55,0.00,,---,0.00,0.00,VWS V14.00,2013-01-22 01:07:00,
2013-01-21 19:12:00,34.9,20.8,30.29,NNE,13,0.0,0.0,56,0.00,,---,0.00,0.00,VWS V14.00,2013-01-22 01:12:00,
2013-01-21 19:17:00,34.8,20.7,30.29,NNE,13,0.0,0.0,56,0.00,,---,0.00,0.00,VWS V14.00,2013-01-22 01:17:00,
2013-01-21 19:22:00,34.6,21.0,30.30,NNE,13,0.0,0.0,57,0.00,,---,0.00,0.00,VWS V14.00,2013-01-22 01:22:00,
2013-01-21 19:27:00,34.4,20.8,30.30,NNE,13,0.0,0.0,57,0.00,,---,0.00,0.00,VWS V14.00,2013-01-22 01:27:00,
2013-01-21 19:30:00,34.4,20.8,30.30,NNE,13,0.0,0.0,57,0.00,,---,0.00,0.00,VWS V14.00,2013-01-22 01:30:00,
2013-01-21 19:32:00,34.2,21.0,30.30,NNE,13,0.0,0.0,58,0.00,,---,0.00,0.00,VWS V14.00,2013-01-22 01:32:00,
2013-01-21 19:37:00,34.1,20.9,30.29,NNE,13,0.0,0.0,58,0.00,,---,0.00,0.00,VWS V14.00,2013-01-22 01:37:00,
2013-01-21 19:42:00,33.9,20.7,30.30,NNE,13,0.0,0.0,58,0.00,,---,0.00,0.00,VWS V14.00,2013-01-22 01:42:00,
2013-01-21 19:47:00,33.9,20.7,30.29,NNE,15,0.0,0.0,58,0.00,,---,0.00,0.00,VWS V14.00,2013-01-22 01:47:00,
2013-01-21 19:52:00,33.8,20.6,30.29,NNE,15,0.0,0.0,58,0.00,,---,0.00,0.00,VWS V14.00,2013-01-22 01:52:00,
2013-01-21 19:57:00,33.7,20.9,30.29,NNE,15,0.0,0.0,59,0.00,,---,0.00,0.00,VWS V14.00,2013-01-22 01:57:00,
2013-01-21 20:00:00,33.7,20.5,30.29,NNE,15,0.0,0.0,58,0.00,,---,0.00,0.00,VWS V14.00,2013-01-22 02:00:00,
2013-01-21 20:02:00,33.6,20.8,30.29,NNE,15,0.0,0.0,59,0.00,,---,0.00,0.00,VWS V14.00,2013-01-22 02:02:00,
2013-01-21 20:07:00,33.5,20.7,30.30,NNE,15,0.0,0.0,59,0.00,,---,0.00,0.00,VWS V14.00,2013-01-22 02:07:00,
2013-01-21 20:12:00,33.3,20.5,30.30,NNE,15,0.0,0.0,59,0.00,,---,0.00,0.00,VWS V14.00,2013-01-22 02:12:00,
2013-01-21 20:17:00,33.1,20.7,30.29,NNE,15,0.0,0.0,60,0.00,,---,0.00,0.00,VWS V14.00,2013-01-22 02:17:00,
2013-01-21 20:22:00,33.0,21.4,30.29,NNE,15,0.0,0.0,62,0.00,,---,0.00,0.00,VWS V14.00,2013-01-22 02:22:00,
2013-01-21 20:27:00,32.8,21.2,30.30,NNE,15,0.0,0.0,62,0.00,,---,0.00,0.00,VWS V14.00,2013-01-22 02:27:00,
2013-01-21 20:30:00,32.8,21.2,30.30,NNE,15,0.0,0.0,62,0.00,,---,0.00,0.00,VWS V14.00,2013-01-22 02:30:00,
2013-01-21 20:32:00,32.6,21.0,30.30,NNE,15,0.0,0.0,62,0.00,,---,0.00,0.00,VWS V14.00,2013-01-22 02:32:00,
2013-01-21 20:37:00,32.4,20.9,30.30,NNE,15,0.0,0.0,62,0.00,,---,0.00,0.00,VWS V14.00,2013-01-22 02:37:00,
2013-01-21 20:42:00,32.2,21.4,30.30,NNE,15,0.0,0.0,64,0.00,,---,0.00,0.00,VWS V14.00,2013-01-22 02:42:00,
2013-01-21 20:47:00,31.9,20.8,30.29,NNE,15,0.0,0.0,63,0.00,,---,0.00,0.00,VWS V14.00,2013-01-22 02:47:00,
2013-01-21 20:52:00,31.7,20.9,30.30,NNE,15,0.0,0.0,64,0.00,,---,0.00,0.00,VWS V14.00,2013-01-22 02:52:00,
2013-01-21 20:57:00,31.5,21.1,30.30,NNE,15,0.0,0.0,65,0.00,,---,0.00,0.00,VWS V14.00,2013-01-22 02:57:00,
2013-01-21 21:00:00,31.5,21.1,30.30,NNE,15,0.0,0.0,65,0.00,,---,0.00,0.00,VWS V14.00,2013-01-22 03:00:00,
2013-01-21 21:02:00,31.3,20.9,30.30,NNE,15,0.0,0.0,65,0.00,,---,0.00,0.00,VWS V14.00,2013-01-22 03:02:00,
2013-01-21 21:07:00,31.1,20.7,30.30,NNE,15,0.0,0.0,65,0.00,,---,0.00,0.00,VWS V14.00,2013-01-22 03:07:00,
2013-01-21 21:12:00,31.0,20.6,30.30,NNE,15,0.0,0.0,65,0.00,,---,0.00,0.00,VWS V14.00,2013-01-22 03:12:00,
2013-01-21 21:17:00,30.9,20.5,30.30,NNE,15,0.0,0.0,65,0.00,,---,0.00,0.00,VWS V14.00,2013-01-22 03:17:00,
2013-01-21 21:22:00,30.7,20.3,30.30,NNE,15,0.0,0.0,65,0.00,,---,0.00,0.00,VWS V14.00,2013-01-22 03:22:00,
2013-01-21 21:27:00,30.6,20.2,30.31,NNE,15,0.0,0.0,65,0.00,,---,0.00,0.00,VWS V14.00,2013-01-22 03:27:00,
2013-01-21 21:30:00,30.6,20.2,30.31,NNE,15,0.0,0.0,65,0.00,,---,0.00,0.00,VWS V14.00,2013-01-22 03:30:00,
2013-01-21 21:32:00,30.3,20.0,30.31,NNE,15,0.0,0.0,65,0.00,,---,0.00,0.00,VWS V14.00,2013-01-22 03:32:00,
2013-01-21 21:37:00,30.1,20.1,30.30,NNE,15,0.0,0.0,66,0.00,,---,0.00,0.00,VWS V14.00,2013-01-22 03:37:00,
2013-01-21 21:42:00,29.8,20.2,30.31,NNE,15,0.0,0.0,67,0.00,,---,0.00,0.00,VWS V14.00,2013-01-22 03:42:00,
2013-01-21 21:47:00,29.7,20.1,30.31,NNE,15,0.0,0.0,67,0.00,,---,0.00,0.00,VWS V14.00,2013-01-22 03:47:00,
2013-01-21 21:52:00,29.7,20.5,30.31,NNE,15,0.0,0.0,68,0.00,,---,0.00,0.00,VWS V14.00,2013-01-22 03:52:00,
2013-01-21 21:57:00,29.7,20.5,30.31,NNE,15,0.0,0.0,68,0.00,,---,0.00,0.00,VWS V14.00,2013-01-22 03:57:00,
2013-01-21 22:00:00,29.7,20.5,30.31,NNE,15,0.0,0.0,68,0.00,,---,0.00,0.00,VWS V14.00,2013-01-22 04:00:00,
2013-01-21 22:02:00,29.6,20.7,30.31,NNE,15,0.0,0.0,69,0.00,,---,0.00,0.00,VWS V14.00,2013-01-22 04:02:00,
2013-01-21 22:07:00,29.5,20.3,30.31,NNE,15,0.0,0.0,68,0.00,,---,0.00,0.00,VWS V14.00,2013-01-22 04:07:00,
2013-01-21 22:12:00,29.4,20.5,30.31,NNE,15,0.0,0.0,69,0.00,,---,0.00,0.00,VWS V14.00,2013-01-22 04:12:00,
2013-01-21 22:17:00,29.3,20.4,30.31,NNE,15,0.0,0.0,69,0.00,,---,0.00,0.00,VWS V14.00,2013-01-22 04:17:00,
2013-01-21 22:22:00,29.4,20.5,30.31,NNE,15,0.0,0.0,69,0.00,,---,0.00,0.00,VWS V14.00,2013-01-22 04:22:00,
2013-01-21 22:27:00,29.3,20.4,30.31,NNE,15,0.0,0.0,69,0.00,,---,0.00,0.00,VWS V14.00,2013-01-22 04:27:00,
2013-01-21 22:30:00,29.3,20.4,30.31,NNE,15,0.0,0.0,69,0.00,,---,0.00,0.00,VWS V14.00,2013-01-22 04:30:00,
2013-01-21 22:32:00,29.3,20.7,30.31,NNE,15,0.0,0.0,70,0.00,,---,0.00,0.00,VWS V14.00,2013-01-22 04:32:00,
2013-01-21 22:37:00,29.3,20.7,30.31,NNE,15,0.0,0.0,70,0.00,,---,0.00,0.00,VWS V14.00,2013-01-22 04:37:00,
2013-01-21 22:42:00,29.4,21.2,30.31,NNE,15,0.0,0.0,71,0.00,,---,0.00,0.00,VWS V14.00,2013-01-22 04:42:00,
2013-01-21 22:47:00,29.3,21.1,30.31,NNE,15,0.0,0.0,71,0.00,,---,0.00,0.00,VWS V14.00,2013-01-22 04:47:00,
2013-01-21 22:52:00,29.2,20.6,30.31,NNE,15,0.0,0.0,70,0.00,,---,0.00,0.00,VWS V14.00,2013-01-22 04:52:00,
2013-01-21 22:57:00,29.0,20.5,30.30,NNE,15,0.0,0.0,70,0.00,,---,0.00,0.00,VWS V14.00,2013-01-22 04:57:00,
2013-01-21 23:00:00,28.9,20.4,30.30,NNE,15,0.0,0.0,70,0.00,,---,0.00,0.00,VWS V14.00,2013-01-22 05:00:00,
2013-01-21 23:01:00,28.8,20.3,30.31,NNE,15,0.0,0.0,70,0.00,,---,0.00,0.00,VWS V14.00,2013-01-22 05:01:00,
2013-01-21 23:06:00,28.5,20.3,30.31,NNE,15,0.0,0.0,71,0.00,,---,0.00,0.00,VWS V14.00,2013-01-22 05:06:00,
2013-01-21 23:11:00,28.4,20.9,30.30,NNE,15,0.0,0.0,73,0.00,,---,0.00,0.00,VWS V14.00,2013-01-22 05:11:00,
2013-01-21 23:16:00,28.3,20.8,30.30,NNE,15,0.0,0.0,73,0.00,,---,0.00,0.00,VWS V14.00,2013-01-22 05:16:00,
2013-01-21 23:21:00,28.3,21.4,30.30,NNE,15,0.0,0.0,75,0.00,,---,0.00,0.00,VWS V14.00,2013-01-22 05:21:00,
2013-01-21 23:25:00,28.2,21.0,30.30,NNE,15,0.0,0.0,74,0.00,,---,0.00,0.00,VWS V14.00,2013-01-22 05:25:00,
2013-01-21 23:30:00,28.1,20.9,30.30,NNE,15,0.0,0.0,74,0.00,,---,0.00,0.00,VWS V14.00,2013-01-22 05:30:00,
2013-01-21 23:35:00,27.9,20.4,30.31,NNE,15,0.0,0.0,73,0.00,,---,0.00,0.00,VWS V14.00,2013-01-22 05:35:00,
2013-01-21 23:40:00,27.7,20.5,30.31,NNE,15,0.0,0.0,74,0.00,,---,0.00,0.00,VWS V14.00,2013-01-22 05:40:00,
2013-01-21 23:45:00,27.6,20.7,30.31,NNE,15,0.0,0.0,75,0.00,,---,0.00,0.00,VWS V14.00,2013-01-22 05:45:00,
2013-01-21 23:50:00,27.6,21.4,30.31,NNE,15,0.0,0.0,77,0.00,,---,0.00,0.00,VWS V14.00,2013-01-22 05:50:00,
2013-01-21 23:55:00,27.8,21.9,30.30,NNE,15,0.0,0.0,78,0.00,,---,0.00,0.00,VWS V14.00,2013-01-22 05:55:00,